map of LIPS home
Great Circle Mapper logo
LIPS - Airport
Location
City:  Treviso, Veneto, Italy
Name:Treviso-Istrana Airport
Old (Alt.):V. Bragadin
ICAO:LIPS

Details
Type:Airport (Aerodrome, Airfield)
Use:Military
Latitude:4541'06"N (45.684867)
Longitude:1204'58"E (12.082881)
Datum:WGS 1984
Elevation:137 ft (42 m)
Variation:2.8E (WMM2015 magnetic declination)
Runways:1
Longest:9816 × 105 ft (2992 × 32 m), paved

Time
Time Zone:UTC+1 (DST+2)
Local Time:

Weather
METAR:LIPS 201555Z 00000KT 8000 NSC 09/06 Q1021 RMK SKC VIS MIN 8000 WIND THR26 00000KT WIND THR08 00000KT BLU

Related Locations
Nearby:
Farthest:CHT: 12000 mi / 19312 km
Waitangi [Tuuta], Chatham Islands, NZ

Find:

   beyond  
but within

Other Information
Maps:
NOTAMs:
Links:
Sources:

  
flag of Italy
flag of Veneto
  

Sectional Chart

Flight Planning
at skyvector.com

Satellite Image

Google Maps Satellite View

 

Copyright © 2004-2014 Karl L. Swartz. All rights reserved.
The Great Circle Mapper name and logo are trademarks of the Great Circle Mapper.
All other trademarks mentioned herein belong to their respective owners.
Please see credits for attibutions and further copyright information.

  Follow gcmap on Facebook Follow gcmap on Twitter

hCard Microformat

Geo Microformat